STARLINK-34988

Last updated on Thu Oct 02 2025 00:02:05 GMT+0000 (Coordinated Universal Time)

1 65453U 25194V 25274.50002315 .00546835 00000+0 19876-2 0 9993 2 65453 97.5826 127.9243 0001181 88.7945 204.5732 15.87184325 4980

Satellite not in orbit

STARLINK-34988